Weather Roundup
Issued by NWS Corpus Christi, TX

Home | Current Version | Previous Version | Text Only | Print | Product List | Glossary On
Versions: 1 2 3 4 5 6 7 8 9 10 11 12 13 14 15 16 17 18 19 20 21 22 23 24 25 26 27 28 29 30 31 32 33 34 35 36 37 38 39 40 41 42 43 44 45 46 47 48 49 50
000
ASUS44 KCRP 240810
HRRCRP

SOUTH TEXAS REGIONAL WEATHER ROUNDUP
NATIONAL WEATHER SERVICE CORPUS CHRISTI TX
300 AM CDT THU JUL 24 2014


TXZ229>244-240900-
...CORPUS CHRISTI AREA OBSERVATIONS...

CITY           SKY/WX    TMP DP  RH WIND       PRES   REMARKS
CORPUS CHRISTI MOCLDY    78  75  90 CALM      29.99F
NAS CORPUS CHR MOCLDY    82  78  88 S3        29.98F HX  91
ROCKPORT       MOCLDY    81  76  84 S3        29.98F
KINGSVILLE NAS MOCLDY    79  78  97 CALM      29.99F
ALICE          MOCLDY    78  76  93 SE5       29.99F
FALFURRIAS     MOCLDY    67  67 100 CALM      29.99R
$$

...VICTORIA AREA OBSERVATIONS...

CITY           SKY/WX    TMP DP  RH WIND       PRES   REMARKS
VICTORIA       MOCLDY    79  75  87 SW6       29.99F
BEEVILLE       FAIR      78  75  91 CALM      29.99F
PLEASANTON     PTCLDY    79  69  71 CALM      30.00F
SAN ANTONIO    PTCLDY    81  72  74 S7        30.02F
$$

...LAREDO AREA OBSERVATIONS...

CITY           SKY/WX    TMP DP  RH WIND       PRES   REMARKS
LAREDO         MOCLDY    85  70  60 SE9       30.01S
COTULLA        MOCLDY    81  68  64 E8        30.01S
DEL RIO        PTCLDY    84  65  52 E6        30.01S
MCALLEN        CLEAR     80  76  87 SE6       29.97F
HEBBRONVILLE   CLOUDY    79  71  76 SE3       30.01R
$$

...OTHER TEXAS OBSERVATIONS...

CITY           SKY/WX    TMP DP  RH WIND       PRES   REMARKS
BROWNSVILLE    PTCLDY    78  75  90 SE5       29.98F
HOUSTON        MOCLDY    78  71  79 CALM      29.98S
COL. STATION   CLOUDY    78  67  68 CALM      29.99S
AUSTIN         MOCLDY    77  70  79 NE3       30.00F
WACO           PTCLDY    76  66  71 CALM      30.00S
FORT WORTH     MOCLDY    79  66  64 W14       29.98F
WICHITA FALLS  MOCLDY    76  72  87 E3        30.04F
LUBBOCK        CLEAR     73  61  65 SE6       30.18F
EL PASO        CLEAR     79  51  37 SE6       30.18S
$$

...MARINE OBSERVATIONS...

STATION/POSITION TIME  SKY/WX   TEMP    WIND        PRES    VSBY  WAVE   SWELL
                                AIR SEA DIR/SP/G                  HT/PER HT/PER
                 (UTC)          (F)     (DEG/KT/KT) (MB)    (MI)  (FT/S) (FT/S)
PORT ARANSAS     0700            82 87  160/  7/  8 1016.1R
BUOY 90 E PORT A 0800            82 84  180/  6/  8 1015.6F         1/ 5
BUOY 45 SE BAFFI 0800            83 82  180/  8/ 10 1015.1S         1/ 5   2/ 5
BUOY 200 E PT IS 0800            83 85  170/  8/  8 1015.0F         1/ 5   2/ 5
BUOY 15 E GALVES NOT AVBL
$$


USA.gov is the U.S. government's official web portal to all federal, state and local government web resources and services.